Time,TemperatureF,DewpointF,PressureIn,WindDirection,WindDirectionDegrees,WindSpeedMPH,WindSpeedGustMPH,Humidity,HourlyPrecipIn,Conditions,Clouds,dailyrainin,SoftwareType,DateUTC
2013-07-30 00:02:00,56.5,55.4,31.05,SSW,210,0.0,0.0,96,0.00,CLR,CLR,0.00,WeatherDisplay:10.37,2013-07-30 04:02:00,
2013-07-30 00:07:00,56.4,55.0,31.06,SSW,210,0.0,0.0,95,0.00,CLR,CLR,0.00,WeatherDisplay:10.37,2013-07-30 04:07:00,
2013-07-30 00:12:00,56.3,55.1,31.06,SSW,210,0.0,0.0,96,0.00,CLR,CLR,0.00,WeatherDisplay:10.37,2013-07-30 04:12:00,
2013-07-30 00:17:00,56.3,55.2,31.06,SSW,210,0.0,0.0,96,0.00,CLR,CLR,0.00,WeatherDisplay:10.37,2013-07-30 04:17:00,
2013-07-30 00:22:00,56.4,55.2,31.06,SSW,210,0.0,0.0,96,0.00,CLR,CLR,0.00,WeatherDisplay:10.37,2013-07-30 04:22:00,
2013-07-30 00:27:00,56.4,55.3,31.06,SSW,210,0.0,0.0,96,0.00,CLR,CLR,0.00,WeatherDisplay:10.37,2013-07-30 04:27:00,
2013-07-30 00:32:00,56.4,55.2,31.06,SSW,210,0.0,0.0,96,0.00,CLR,CLR,0.00,WeatherDisplay:10.37,2013-07-30 04:32:00,
2013-07-30 00:37:00,56.4,55.3,31.05,SSW,210,0.0,0.0,96,0.00,CLR,CLR,0.00,WeatherDisplay:10.37,2013-07-30 04:37:00,
2013-07-30 00:47:00,56.1,55.0,31.05,SSW,210,0.0,0.0,96,0.00,CLR,CLR,0.00,WeatherDisplay:10.37,2013-07-30 04:47:00,
2013-07-30 00:52:00,55.9,54.8,31.06,SSW,210,0.0,0.0,96,0.00,CLR,CLR,0.00,WeatherDisplay:10.37,2013-07-30 04:52:00,
2013-07-30 00:57:00,55.7,54.6,31.06,SSW,210,0.0,0.0,96,0.00,CLR,CLR,0.00,WeatherDisplay:10.37,2013-07-30 04:57:00,
2013-07-30 01:02:00,55.5,54.4,31.06,SSW,210,0.0,0.0,96,0.00,CLR,CLR,0.00,WeatherDisplay:10.37,2013-07-30 05:02:00,
2013-07-30 01:07:00,55.5,54.4,31.06,SSW,210,0.0,0.0,96,0.00,CLR,CLR,0.00,WeatherDisplay:10.37,2013-07-30 05:07:00,
2013-07-30 01:12:00,55.5,54.7,31.06,SSW,210,0.0,0.0,97,0.00,CLR,CLR,0.00,WeatherDisplay:10.37,2013-07-30 05:12:00,
2013-07-30 01:22:00,55.5,54.7,31.06,SSW,210,0.0,0.0,97,0.00,CLR,CLR,0.00,WeatherDisplay:10.37,2013-07-30 05:22:00,
2013-07-30 01:32:00,55.3,54.2,31.06,SSW,210,0.0,0.0,96,0.00,CLR,CLR,0.00,WeatherDisplay:10.37,2013-07-30 05:32:00,
2013-07-30 01:42:00,55.0,54.2,31.05,SSW,210,0.0,0.0,97,0.00,CLR,CLR,0.00,WeatherDisplay:10.37,2013-07-30 05:42:00,
2013-07-30 01:52:00,54.9,54.1,31.05,SSW,210,0.0,0.0,97,0.00,CLR,CLR,0.00,WeatherDisplay:10.37,2013-07-30 05:52:00,
2013-07-30 01:57:00,54.7,53.6,31.05,SSW,210,0.0,0.0,96,0.00,CLR,CLR,0.00,WeatherDisplay:10.37,2013-07-30 05:57:00,
2013-07-30 02:07:00,54.4,53.6,31.06,SSW,210,0.0,0.0,97,0.00,CLR,CLR,0.00,WeatherDisplay:10.37,2013-07-30 06:07:00,
2013-07-30 02:12:00,54.2,53.1,31.06,SSW,210,0.0,0.0,96,0.00,CLR,CLR,0.00,WeatherDisplay:10.37,2013-07-30 06:12:00,
2013-07-30 02:17:00,54.2,53.4,31.06,SSW,210,0.0,0.0,97,0.00,CLR,CLR,0.00,WeatherDisplay:10.37,2013-07-30 06:17:00,
2013-07-30 02:22:00,54.2,53.4,31.06,SSW,210,0.0,0.0,97,0.00,CLR,CLR,0.00,WeatherDisplay:10.37,2013-07-30 06:22:00,
2013-07-30 02:27:00,54.1,53.3,31.06,SSW,210,0.0,0.0,97,0.00,CLR,CLR,0.00,WeatherDisplay:10.37,2013-07-30 06:27:00,
2013-07-30 02:32:00,54.1,53.3,31.06,SSW,210,0.0,0.0,97,0.00,CLR,CLR,0.00,WeatherDisplay:10.37,2013-07-30 06:32:00,
2013-07-30 02:37:00,54.1,53.3,31.06,SSW,210,0.0,0.0,97,0.00,CLR,CLR,0.00,WeatherDisplay:10.37,2013-07-30 06:37:00,
2013-07-30 02:42:00,54.3,53.4,31.06,SSW,210,0.0,0.0,97,0.00,CLR,CLR,0.00,WeatherDisplay:10.37,2013-07-30 06:42:00,
2013-07-30 02:47:00,54.5,54.2,31.06,SSW,210,0.0,0.0,99,0.00,CLR,CLR,0.00,WeatherDisplay:10.37,2013-07-30 06:47:00,
2013-07-30 02:52:00,54.6,53.8,31.06,SSW,210,0.0,0.0,97,0.00,CLR,CLR,0.00,WeatherDisplay:10.37,2013-07-30 06:52:00,
2013-07-30 03:02:00,54.7,53.9,31.06,SSW,210,0.0,0.0,97,0.00,CLR,CLR,0.00,WeatherDisplay:10.37,2013-07-30 07:02:00,
2013-07-30 03:12:00,54.8,54.0,31.05,SSW,210,0.0,0.0,97,0.00,CLR,CLR,0.00,WeatherDisplay:10.37,2013-07-30 07:12:00,
2013-07-30 03:17:00,54.9,54.1,31.05,SSW,210,0.0,0.0,97,0.00,CLR,CLR,0.00,WeatherDisplay:10.37,2013-07-30 07:17:00,
2013-07-30 03:22:00,55.0,54.2,31.06,SSW,210,0.0,0.0,97,0.00,CLR,CLR,0.00,WeatherDisplay:10.37,2013-07-30 07:22:00,
2013-07-30 03:37:00,55.3,54.7,31.06,SSW,210,0.0,0.0,98,0.00,CLR,CLR,0.00,WeatherDisplay:10.37,2013-07-30 07:37:00,
2013-07-30 03:42:00,55.3,54.8,31.06,SSW,210,0.0,0.0,98,0.00,CLR,CLR,0.00,WeatherDisplay:10.37,2013-07-30 07:42:00,
2013-07-30 03:47:00,55.4,54.8,31.06,SSW,210,0.0,0.0,98,0.00,CLR,CLR,0.00,WeatherDisplay:10.37,2013-07-30 07:47:00,
2013-07-30 03:52:00,55.7,55.1,31.06,SSW,210,0.0,0.0,98,0.00,CLR,CLR,0.00,WeatherDisplay:10.37,2013-07-30 07:52:00,
2013-07-30 03:57:00,55.8,55.2,31.06,SSW,210,0.0,0.0,98,0.00,CLR,CLR,0.00,WeatherDisplay:10.37,2013-07-30 07:57:00,
2013-07-30 04:02:00,56.0,55.4,31.06,SSW,210,0.0,0.0,98,0.00,CLR,CLR,0.00,WeatherDisplay:10.37,2013-07-30 08:02:00,
2013-07-30 04:07:00,56.2,55.6,31.06,SSW,210,0.0,0.0,98,0.00,CLR,CLR,0.00,WeatherDisplay:10.37,2013-07-30 08:07:00,
2013-07-30 04:12:00,56.4,55.8,31.06,SSW,210,0.0,0.0,98,0.00,CLR,CLR,0.00,WeatherDisplay:10.37,2013-07-30 08:12:00,
2013-07-30 04:17:00,56.4,55.8,31.06,SSW,210,0.0,0.0,98,0.00,CLR,CLR,0.00,WeatherDisplay:10.37,2013-07-30 08:17:00,
2013-07-30 04:22:00,56.3,55.7,31.06,SSW,210,0.0,0.0,98,0.00,CLR,CLR,0.00,WeatherDisplay:10.37,2013-07-30 08:22:00,
2013-07-30 04:32:00,56.0,55.4,31.06,SSW,210,0.0,0.0,98,0.00,CLR,CLR,0.00,WeatherDisplay:10.37,2013-07-30 08:32:00,
2013-07-30 04:37:00,55.8,54.9,31.07,SSW,210,0.0,0.0,97,0.00,CLR,CLR,0.00,WeatherDisplay:10.37,2013-07-30 08:37:00,
2013-07-30 04:42:00,55.6,54.8,31.07,SSW,210,0.0,0.0,97,0.00,CLR,CLR,0.00,WeatherDisplay:10.37,2013-07-30 08:42:00,
2013-07-30 04:47:00,55.5,54.7,31.07,SSW,210,0.0,0.0,97,0.00,CLR,CLR,0.00,WeatherDisplay:10.37,2013-07-30 08:47:00,
2013-07-30 04:57:00,55.5,54.9,31.07,SSW,210,0.0,0.0,98,0.00,CLR,CLR,0.00,WeatherDisplay:10.37,2013-07-30 08:57:00,
2013-07-30 05:07:00,55.3,54.7,31.07,SSW,210,0.0,0.0,98,0.00,CLR,CLR,0.00,WeatherDisplay:10.37,2013-07-30 09:07:00,
2013-07-30 05:12:00,55.2,54.6,31.07,SSW,210,0.0,0.0,98,0.00,CLR,CLR,0.00,WeatherDisplay:10.37,2013-07-30 09:12:00,
2013-07-30 05:22:00,55.1,54.3,31.07,SSW,210,0.0,0.0,97,0.00,CLR,CLR,0.00,WeatherDisplay:10.37,2013-07-30 09:22:00,
2013-07-30 05:27:00,55.1,54.5,31.07,SSW,210,0.0,0.0,98,0.00,CLR,CLR,0.00,WeatherDisplay:10.37,2013-07-30 09:27:00,
2013-07-30 05:37:00,54.8,54.2,31.07,SSW,210,0.0,0.0,98,0.00,CLR,CLR,0.00,WeatherDisplay:10.37,2013-07-30 09:37:00,
2013-07-30 05:42:00,54.6,53.7,31.07,SSW,210,0.0,0.0,97,0.00,CLR,CLR,0.00,WeatherDisplay:10.37,2013-07-30 09:42:00,
2013-07-30 05:47:00,54.3,53.5,31.07,SSW,210,0.0,0.0,97,0.00,CLR,CLR,0.00,WeatherDisplay:10.37,2013-07-30 09:47:00,
2013-07-30 05:52:00,54.1,53.3,31.07,SSW,210,0.0,0.0,97,0.00,CLR,CLR,0.00,WeatherDisplay:10.37,2013-07-30 09:52:00,
2013-07-30 06:02:00,53.5,52.7,31.07,SSW,210,0.0,0.0,97,0.00,CLR,CLR,0.00,WeatherDisplay:10.37,2013-07-30 10:02:00,
2013-07-30 06:07:00,53.2,52.4,31.08,SSW,210,0.0,0.0,97,0.00,CLR,CLR,0.00,WeatherDisplay:10.37,2013-07-30 10:07:00,
2013-07-30 06:17:00,52.9,52.1,31.08,SSW,210,0.0,0.0,97,0.00,CLR,CLR,0.00,WeatherDisplay:10.37,2013-07-30 10:17:00,
2013-07-30 06:22:00,52.9,52.1,31.08,SSW,210,0.0,0.0,97,0.00,CLR,CLR,0.00,WeatherDisplay:10.37,2013-07-30 10:22:00,
2013-07-30 06:32:00,52.7,51.9,31.08,SSW,210,0.0,0.0,97,0.00,CLR,CLR,0.00,WeatherDisplay:10.37,2013-07-30 10:32:00,
2013-07-30 06:37:00,52.7,51.9,31.08,SSW,210,0.0,0.0,97,0.00,CLR,CLR,0.00,WeatherDisplay:10.37,2013-07-30 10:37:00,
2013-07-30 06:42:00,52.8,52.3,31.09,SSW,210,0.0,0.0,98,0.00,CLR,CLR,0.00,WeatherDisplay:10.37,2013-07-30 10:42:00,
2013-07-30 06:47:00,52.9,52.4,31.09,SSW,210,0.0,0.0,98,0.00,CLR,CLR,0.00,WeatherDisplay:10.37,2013-07-30 10:47:00,
2013-07-30 06:57:00,53.1,52.6,31.09,SSW,210,0.0,0.0,98,0.00,CLR,CLR,0.00,WeatherDisplay:10.37,2013-07-30 10:57:00,
2013-07-30 07:02:00,53.2,52.7,31.09,SSW,210,0.0,0.0,98,0.00,CLR,CLR,0.00,WeatherDisplay:10.37,2013-07-30 11:02:00,
2013-07-30 07:07:00,53.3,52.8,31.09,SSW,210,0.0,0.0,98,0.00,CLR,CLR,0.00,WeatherDisplay:10.37,2013-07-30 11:07:00,
2013-07-30 07:12:00,53.5,53.0,31.09,SSW,210,0.0,1.0,98,0.00,CLR,CLR,0.00,WeatherDisplay:10.37,2013-07-30 11:12:00,
2013-07-30 07:17:00,54.0,53.4,31.09,SSW,210,0.0,0.0,98,0.00,CLR,CLR,0.00,WeatherDisplay:10.37,2013-07-30 11:17:00,
2013-07-30 07:22:00,54.2,53.7,31.09,SSW,210,0.0,1.0,98,0.00,CLR,CLR,0.00,WeatherDisplay:10.37,2013-07-30 11:22:00,
2013-07-30 07:27:00,54.5,53.9,31.09,SSW,210,0.0,1.0,98,0.00,CLR,CLR,0.00,WeatherDisplay:10.37,2013-07-30 11:27:00,
2013-07-30 07:37:00,54.8,54.3,31.10,SSW,210,0.0,1.0,98,0.00,CLR,CLR,0.00,WeatherDisplay:10.37,2013-07-30 11:37:00,
2013-07-30 07:42:00,55.0,54.4,31.10,SSW,210,0.0,0.0,98,0.00,CLR,CLR,0.00,WeatherDisplay:10.37,2013-07-30 11:42:00,
2013-07-30 07:47:00,55.2,54.7,31.10,SSW,210,0.0,1.0,98,0.00,CLR,CLR,0.00,WeatherDisplay:10.37,2013-07-30 11:47:00,
2013-07-30 07:52:00,55.6,55.0,31.10,SSW,210,0.0,2.0,98,0.00,CLR,CLR,0.00,WeatherDisplay:10.37,2013-07-30 11:52:00,
2013-07-30 07:57:00,55.8,55.2,31.10,SSW,210,0.0,0.0,98,0.00,CLR,CLR,0.00,WeatherDisplay:10.37,2013-07-30 11:57:00,
2013-07-30 08:02:00,56.0,55.4,31.10,SSW,210,0.0,0.0,98,0.00,CLR,CLR,0.00,WeatherDisplay:10.37,2013-07-30 12:02:00,
2013-07-30 08:07:00,56.3,55.7,31.10,SSW,210,0.0,0.0,98,0.00,CLR,CLR,0.00,WeatherDisplay:10.37,2013-07-30 12:07:00,
2013-07-30 08:12:00,56.6,56.0,31.10,SSW,210,0.0,0.0,98,0.00,CLR,CLR,0.00,WeatherDisplay:10.37,2013-07-30 12:12:00,
2013-07-30 08:17:00,57.0,56.5,31.10,SSW,210,0.0,1.0,98,0.00,CLR,CLR,0.00,WeatherDisplay:10.37,2013-07-30 12:17:00,
2013-07-30 08:22:00,57.5,57.2,31.10,SSW,210,0.0,0.0,99,0.00,CLR,CLR,0.00,WeatherDisplay:10.37,2013-07-30 12:22:00,
2013-07-30 08:27:00,57.8,57.2,31.10,SSW,210,0.0,0.0,98,0.00,CLR,CLR,0.00,WeatherDisplay:10.37,2013-07-30 12:27:00,
2013-07-30 08:32:00,58.0,57.7,31.10,SSW,210,0.0,0.0,99,0.00,CLR,CLR,0.00,WeatherDisplay:10.37,2013-07-30 12:32:00,
2013-07-30 08:37:00,58.3,57.7,31.10,SSW,210,0.0,0.0,98,0.00,CLR,CLR,0.00,WeatherDisplay:10.37,2013-07-30 12:37:00,
2013-07-30 08:42:00,58.6,58.3,31.10,SSW,210,0.0,0.0,99,0.00,CLR,CLR,0.00,WeatherDisplay:10.37,2013-07-30 12:42:00,
2013-07-30 08:47:00,58.8,58.5,31.10,SSW,210,0.0,0.0,99,0.00,CLR,CLR,0.00,WeatherDisplay:10.37,2013-07-30 12:47:00,
2013-07-30 08:57:00,59.3,59.0,31.10,SSW,210,0.0,0.0,99,0.00,CLR,CLR,0.00,WeatherDisplay:10.37,2013-07-30 12:57:00,
2013-07-30 09:02:00,59.9,59.6,31.10,SSW,210,0.0,0.0,99,0.00,CLR,CLR,0.00,WeatherDisplay:10.37,2013-07-30 13:02:00,
2013-07-30 09:07:00,60.1,59.8,31.10,SSW,210,0.0,0.0,99,0.00,CLR,CLR,0.00,WeatherDisplay:10.37,2013-07-30 13:07:00,
2013-07-30 09:12:00,60.4,60.1,31.10,SSW,210,0.0,1.0,99,0.00,CLR,CLR,0.00,WeatherDisplay:10.37,2013-07-30 13:12:00,
2013-07-30 09:17:00,60.7,60.4,31.10,SSW,210,0.0,1.0,99,0.00,CLR,CLR,0.00,WeatherDisplay:10.37,2013-07-30 13:17:00,
2013-07-30 09:22:00,61.1,60.8,31.10,SSW,210,0.0,1.0,99,0.00,CLR,CLR,0.00,WeatherDisplay:10.37,2013-07-30 13:22:00,
2013-07-30 09:27:00,61.4,60.8,31.10,SSW,210,0.0,0.0,98,0.00,CLR,CLR,0.00,WeatherDisplay:10.37,2013-07-30 13:27:00,
2013-07-30 09:32:00,61.7,61.4,31.10,SSW,210,0.0,0.0,99,0.00,CLR,CLR,0.00,WeatherDisplay:10.37,2013-07-30 13:32:00,
2013-07-30 09:37:00,62.2,61.6,31.10,SSW,210,0.0,1.0,98,0.00,CLR,CLR,0.00,WeatherDisplay:10.37,2013-07-30 13:37:00,
2013-07-30 09:42:00,62.8,62.2,31.10,SSW,210,0.0,0.0,98,0.00,CLR,CLR,0.00,WeatherDisplay:10.37,2013-07-30 13:42:00,
2013-07-30 09:47:00,63.3,62.7,31.10,SSW,210,0.0,0.0,98,0.00,CLR,CLR,0.00,WeatherDisplay:10.37,2013-07-30 13:47:00,
2013-07-30 10:02:00,64.9,61.3,31.10,SSW,210,0.0,3.0,88,0.00,CLR,CLR,0.01,WeatherDisplay:10.37,2013-07-30 14:02:00,
2013-07-30 10:07:00,66.1,61.2,31.10,SSW,210,0.0,0.0,84,0.00,CLR,CLR,0.01,WeatherDisplay:10.37,2013-07-30 14:07:00,
2013-07-30 10:12:00,67.3,61.9,31.10,SSW,210,1.0,3.0,83,0.00,CLR,CLR,0.01,WeatherDisplay:10.37,2013-07-30 14:12:00,
2013-07-30 10:17:00,68.0,61.6,31.10,WSW,252,1.0,5.0,80,0.00,CLR,CLR,0.01,WeatherDisplay:10.37,2013-07-30 14:17:00,
2013-07-30 10:27:00,69.1,60.9,31.10,West,265,2.0,5.0,75,0.00,CLR,CLR,0.01,WeatherDisplay:10.37,2013-07-30 14:27:00,
2013-07-30 10:32:00,69.5,60.9,31.10,WSW,241,0.0,5.0,74,0.00,CLR,CLR,0.01,WeatherDisplay:10.37,2013-07-30 14:32:00,
2013-07-30 10:37:00,70.0,62.1,31.10,SSW,213,5.0,5.0,76,0.00,CLR,CLR,0.01,WeatherDisplay:10.37,2013-07-30 14:37:00,
2013-07-30 10:42:00,70.2,61.1,31.09,SSW,198,1.0,6.0,73,0.00,CLR,CLR,0.01,WeatherDisplay:10.37,2013-07-30 14:42:00,
2013-07-30 10:47:00,70.5,61.8,31.09,SSW,193,2.0,5.0,74,0.00,CLR,CLR,0.01,WeatherDisplay:10.37,2013-07-30 14:47:00,
2013-07-30 10:52:00,70.6,61.1,31.09,South,177,3.0,6.0,72,0.00,CLR,CLR,0.01,WeatherDisplay:10.37,2013-07-30 14:52:00,
2013-07-30 10:57:00,71.1,60.8,31.09,South,189,2.0,6.0,70,0.00,CLR,CLR,0.01,WeatherDisplay:10.37,2013-07-30 14:57:00,
2013-07-30 11:02:00,71.2,59.7,31.09,SSW,210,0.0,6.0,67,0.00,CLR,CLR,0.01,WeatherDisplay:10.37,2013-07-30 15:02:00,
2013-07-30 11:07:00,71.5,59.6,31.09,SSW,207,1.0,4.0,66,0.00,CLR,CLR,0.01,WeatherDisplay:10.37,2013-07-30 15:07:00,
2013-07-30 11:12:00,72.1,61.3,31.09,SSW,198,0.0,2.0,69,0.00,CLR,CLR,0.01,WeatherDisplay:10.37,2013-07-30 15:12:00,
2013-07-30 11:17:00,72.6,60.6,31.09,SW,221,1.0,5.0,66,0.00,CLR,CLR,0.01,WeatherDisplay:10.37,2013-07-30 15:17:00,
2013-07-30 11:27:00,72.7,59.0,31.09,NW,313,2.0,5.0,62,0.00,CLR,CLR,0.01,WeatherDisplay:10.37,2013-07-30 15:27:00,
2013-07-30 11:32:00,72.4,58.6,31.09,NNW,337,0.0,3.0,62,0.00,CLR,CLR,0.01,WeatherDisplay:10.37,2013-07-30 15:32:00,
2013-07-30 11:37:00,72.6,58.9,31.09,SW,221,1.0,5.0,62,0.00,CLR,CLR,0.01,WeatherDisplay:10.37,2013-07-30 15:37:00,
2013-07-30 11:42:00,72.8,59.0,31.09,SSW,207,0.0,1.0,62,0.00,CLR,CLR,0.01,WeatherDisplay:10.37,2013-07-30 15:42:00,
2013-07-30 11:47:00,72.7,58.0,31.09,SSW,206,0.0,4.0,60,0.00,CLR,CLR,0.01,WeatherDisplay:10.37,2013-07-30 15:47:00,
2013-07-30 11:52:00,72.4,59.5,31.09,West,265,1.0,5.0,64,0.00,CLR,CLR,0.01,WeatherDisplay:10.37,2013-07-30 15:52:00,
2013-07-30 11:57:00,71.9,59.5,31.09,WNW,286,0.0,4.0,65,0.00,CLR,CLR,0.01,WeatherDisplay:10.37,2013-07-30 15:57:00,
2013-07-30 12:02:00,71.5,59.1,31.09,NW,304,0.0,0.0,65,0.00,CLR,CLR,0.01,WeatherDisplay:10.37,2013-07-30 16:02:00,
2013-07-30 12:12:00,71.4,60.3,31.09,NW,304,0.0,1.0,68,0.00,CLR,CLR,0.01,WeatherDisplay:10.37,2013-07-30 16:12:00,
2013-07-30 12:17:00,71.9,59.1,31.08,NW,304,0.0,1.0,64,0.00,CLR,CLR,0.01,WeatherDisplay:10.37,2013-07-30 16:17:00,
2013-07-30 12:22:00,72.8,59.4,31.08,NW,304,0.0,1.0,63,0.00,CLR,CLR,0.01,WeatherDisplay:10.37,2013-07-30 16:22:00,
2013-07-30 12:32:00,74.2,59.4,31.08,WNW,293,0.0,3.0,60,0.00,CLR,CLR,0.01,WeatherDisplay:10.37,2013-07-30 16:32:00,
2013-07-30 12:37:00,74.6,60.7,31.07,WNW,288,1.0,4.0,62,0.00,CLR,CLR,0.01,WeatherDisplay:10.37,2013-07-30 16:37:00,
2013-07-30 12:42:00,74.9,60.5,31.07,WNW,287,1.0,4.0,61,0.00,CLR,CLR,0.01,WeatherDisplay:10.37,2013-07-30 16:42:00,
2013-07-30 12:52:00,74.7,59.4,31.07,WNW,285,1.0,4.0,59,0.00,CLR,CLR,0.01,WeatherDisplay:10.37,2013-07-30 16:52:00,
2013-07-30 12:57:00,74.9,60.5,31.07,WNW,282,0.0,2.0,61,0.00,CLR,CLR,0.01,WeatherDisplay:10.37,2013-07-30 16:57:00,
2013-07-30 13:02:00,74.8,60.4,31.07,WNW,298,2.0,5.0,61,0.00,CLR,CLR,0.01,WeatherDisplay:10.37,2013-07-30 17:02:00,
2013-07-30 13:07:00,74.4,59.1,31.07,NW,312,1.0,4.0,59,0.00,CLR,CLR,0.01,WeatherDisplay:10.37,2013-07-30 17:07:00,
2013-07-30 13:12:00,74.2,59.4,31.07,NW,315,0.0,3.0,60,0.00,CLR,CLR,0.01,WeatherDisplay:10.37,2013-07-30 17:12:00,
2013-07-30 13:17:00,74.2,58.4,31.07,NW,315,0.0,4.0,58,0.00,CLR,CLR,0.01,WeatherDisplay:10.37,2013-07-30 17:17:00,
2013-07-30 13:22:00,74.4,59.6,31.07,NW,315,0.0,2.0,60,0.00,CLR,CLR,0.01,WeatherDisplay:10.37,2013-07-30 17:22:00,
2013-07-30 13:27:00,75.1,60.7,31.07,West,270,1.0,3.0,61,0.00,CLR,CLR,0.01,WeatherDisplay:10.37,2013-07-30 17:27:00,
2013-07-30 13:32:00,75.1,59.8,31.06,SW,222,1.0,3.0,59,0.00,CLR,CLR,0.01,WeatherDisplay:10.37,2013-07-30 17:32:00,
2013-07-30 13:37:00,75.2,60.4,31.06,SSW,204,3.0,6.0,60,0.00,CLR,CLR,0.01,WeatherDisplay:10.37,2013-07-30 17:37:00,
2013-07-30 13:47:00,75.5,60.6,31.06,South,178,0.0,5.0,60,0.00,CLR,CLR,0.01,WeatherDisplay:10.37,2013-07-30 17:47:00,
2013-07-30 13:57:00,75.8,60.4,31.06,SW,234,1.0,5.0,59,0.00,CLR,CLR,0.01,WeatherDisplay:10.37,2013-07-30 17:57:00,
2013-07-30 14:02:00,76.1,61.7,31.06,WSW,241,2.0,4.0,61,0.00,CLR,CLR,0.01,WeatherDisplay:10.37,2013-07-30 18:02:00,
2013-07-30 14:07:00,76.1,61.7,31.06,WSW,242,0.0,3.0,61,0.00,CLR,CLR,0.01,WeatherDisplay:10.37,2013-07-30 18:07:00,
2013-07-30 14:12:00,76.1,62.1,31.06,NW,318,2.0,6.0,62,0.00,CLR,CLR,0.01,WeatherDisplay:10.37,2013-07-30 18:12:00,
2013-07-30 14:17:00,76.2,61.8,31.06,NNW,329,2.0,4.0,61,0.00,CLR,CLR,0.01,WeatherDisplay:10.37,2013-07-30 18:17:00,
2013-07-30 14:22:00,76.2,61.8,31.06,NW,323,5.0,10.0,61,0.00,CLR,CLR,0.01,WeatherDisplay:10.37,2013-07-30 18:22:00,
2013-07-30 14:27:00,76.3,62.8,31.06,NNW,331,0.0,7.0,63,0.00,CLR,CLR,0.01,WeatherDisplay:10.37,2013-07-30 18:27:00,
2013-07-30 14:32:00,76.8,62.8,31.06,WNW,301,1.0,8.0,62,0.00,CLR,CLR,0.01,WeatherDisplay:10.37,2013-07-30 18:32:00,
2013-07-30 14:37:00,76.7,63.2,31.06,WSW,240,2.0,7.0,63,0.00,CLR,CLR,0.01,WeatherDisplay:10.37,2013-07-30 18:37:00,
2013-07-30 14:42:00,76.9,62.0,31.05,SW,235,2.0,6.0,60,0.00,CLR,CLR,0.01,WeatherDisplay:10.37,2013-07-30 18:42:00,
2013-07-30 14:47:00,77.0,61.6,31.05,WSW,251,1.0,4.0,59,0.00,CLR,CLR,0.01,WeatherDisplay:10.37,2013-07-30 18:47:00,
2013-07-30 14:52:00,76.9,64.2,31.05,WSW,244,2.0,6.0,65,0.00,CLR,CLR,0.01,WeatherDisplay:10.37,2013-07-30 18:52:00,
2013-07-30 14:57:00,77.1,62.6,31.05,West,279,2.0,6.0,61,0.00,CLR,CLR,0.01,WeatherDisplay:10.37,2013-07-30 18:57:00,
2013-07-30 15:02:00,77.0,61.1,31.05,WNW,300,1.0,7.0,58,0.00,CLR,CLR,0.01,WeatherDisplay:10.37,2013-07-30 19:02:00,
2013-07-30 15:07:00,76.9,62.0,31.05,WNW,284,2.0,5.0,60,0.00,CLR,CLR,0.01,WeatherDisplay:10.37,2013-07-30 19:07:00,
2013-07-30 15:12:00,76.8,62.4,31.05,WSW,257,0.0,10.0,61,0.00,CLR,CLR,0.01,WeatherDisplay:10.37,2013-07-30 19:12:00,
2013-07-30 15:17:00,77.2,61.8,31.05,WNW,288,3.0,6.0,59,0.00,CLR,CLR,0.01,WeatherDisplay:10.37,2013-07-30 19:17:00,
2013-07-30 15:22:00,76.9,61.0,31.05,NW,321,0.0,5.0,58,0.00,CLR,CLR,0.01,WeatherDisplay:10.37,2013-07-30 19:22:00,
2013-07-30 15:27:00,77.0,62.1,31.05,NW,318,3.0,7.0,60,0.00,CLR,CLR,0.01,WeatherDisplay:10.37,2013-07-30 19:27:00,
2013-07-30 15:37:00,76.6,63.5,31.05,NW,312,5.0,6.0,64,0.00,CLR,CLR,0.01,WeatherDisplay:10.37,2013-07-30 19:37:00,
2013-07-30 15:42:00,76.4,63.8,31.05,WNW,285,1.0,7.0,65,0.00,CLR,CLR,0.01,WeatherDisplay:10.37,2013-07-30 19:42:00,
2013-07-30 15:52:00,76.0,64.2,31.04,NW,322,2.0,5.0,67,0.00,CLR,CLR,0.01,WeatherDisplay:10.37,2013-07-30 19:52:00,
2013-07-30 15:57:00,76.0,62.9,31.04,WNW,295,5.0,7.0,64,0.00,CLR,CLR,0.01,WeatherDisplay:10.37,2013-07-30 19:57:00,
2013-07-30 16:02:00,75.9,63.3,31.03,NW,310,1.0,7.0,65,0.00,CLR,CLR,0.01,WeatherDisplay:10.37,2013-07-30 20:02:00,
2013-07-30 16:07:00,76.4,62.9,31.04,NNW,345,3.0,6.0,63,0.00,CLR,CLR,0.01,WeatherDisplay:10.37,2013-07-30 20:07:00,
2013-07-30 16:12:00,76.4,63.8,31.03,North,359,2.0,4.0,65,0.00,CLR,CLR,0.01,WeatherDisplay:10.37,2013-07-30 20:12:00,
2013-07-30 16:17:00,75.7,63.1,31.04,North,5,2.0,6.0,65,0.00,CLR,CLR,0.01,WeatherDisplay:10.37,2013-07-30 20:17:00,
2013-07-30 16:22:00,75.1,63.0,31.03,North,10,0.0,5.0,66,0.00,CLR,CLR,0.01,WeatherDisplay:10.37,2013-07-30 20:22:00,
2013-07-30 16:27:00,75.3,64.4,31.03,NNE,17,0.0,1.0,69,0.00,CLR,CLR,0.01,WeatherDisplay:10.37,2013-07-30 20:27:00,
2013-07-30 16:32:00,75.6,64.3,31.03,NNE,17,1.0,3.0,68,0.00,CLR,CLR,0.01,WeatherDisplay:10.37,2013-07-30 20:32:00,
2013-07-30 16:37:00,75.7,64.4,31.03,NNE,17,1.0,4.0,68,0.00,CLR,CLR,0.01,WeatherDisplay:10.37,2013-07-30 20:37:00,
2013-07-30 16:42:00,75.4,63.7,31.03,NNE,17,0.0,3.0,67,0.00,CLR,CLR,0.01,WeatherDisplay:10.37,2013-07-30 20:42:00,
2013-07-30 16:47:00,74.8,63.1,31.03,North,10,0.0,6.0,67,0.00,CLR,CLR,0.01,WeatherDisplay:10.37,2013-07-30 20:47:00,
2013-07-30 16:52:00,74.5,63.6,31.03,North,6,0.0,1.0,69,0.00,CLR,CLR,0.01,WeatherDisplay:10.37,2013-07-30 20:52:00,
2013-07-30 16:57:00,74.8,63.5,31.03,North,353,2.0,5.0,68,0.00,CLR,CLR,0.01,WeatherDisplay:10.37,2013-07-30 20:57:00,
2013-07-30 17:02:00,75.2,64.3,31.03,NNW,342,2.0,7.0,69,0.00,CLR,CLR,0.01,WeatherDisplay:10.37,2013-07-30 21:02:00,
2013-07-30 17:07:00,75.2,63.4,31.03,North,3,1.0,6.0,67,0.00,CLR,CLR,0.01,WeatherDisplay:10.37,2013-07-30 21:07:00,
2013-07-30 17:12:00,75.0,62.9,31.03,North,358,2.0,7.0,66,0.00,CLR,CLR,0.01,WeatherDisplay:10.37,2013-07-30 21:12:00,
2013-07-30 17:17:00,74.8,62.7,31.03,NNW,348,2.0,6.0,66,0.00,CLR,CLR,0.01,WeatherDisplay:10.37,2013-07-30 21:17:00,
2013-07-30 17:22:00,74.9,63.2,31.02,North,359,3.0,7.0,67,0.00,CLR,CLR,0.01,WeatherDisplay:10.37,2013-07-30 21:22:00,
2013-07-30 17:27:00,74.9,63.2,31.03,North,8,3.0,7.0,67,0.00,CLR,CLR,0.01,WeatherDisplay:10.37,2013-07-30 21:27:00,
2013-07-30 17:32:00,75.0,64.1,31.02,NNW,339,1.0,5.0,69,0.00,CLR,CLR,0.01,WeatherDisplay:10.37,2013-07-30 21:32:00,
2013-07-30 17:37:00,75.0,63.3,31.02,NW,308,0.0,5.0,67,0.00,CLR,CLR,0.01,WeatherDisplay:10.37,2013-07-30 21:37:00,
2013-07-30 17:42:00,75.0,63.7,31.03,NW,311,0.0,4.0,68,0.00,CLR,CLR,0.01,WeatherDisplay:10.37,2013-07-30 21:42:00,
2013-07-30 17:47:00,75.0,63.7,31.03,NNW,332,2.0,6.0,68,0.00,CLR,CLR,0.01,WeatherDisplay:10.37,2013-07-30 21:47:00,
2013-07-30 17:52:00,75.0,64.5,31.03,NNW,333,0.0,3.0,70,0.00,CLR,CLR,0.01,WeatherDisplay:10.37,2013-07-30 21:52:00,
2013-07-30 17:57:00,75.0,63.3,31.03,North,0,1.0,6.0,67,0.00,CLR,CLR,0.01,WeatherDisplay:10.37,2013-07-30 21:57:00,
2013-07-30 18:02:00,75.0,62.9,31.03,NNW,348,2.0,6.0,66,0.00,CLR,CLR,0.01,WeatherDisplay:10.37,2013-07-30 22:02:00,
2013-07-30 18:07:00,74.8,63.1,31.03,NW,317,1.0,6.0,67,0.00,CLR,CLR,0.01,WeatherDisplay:10.37,2013-07-30 22:07:00,
2013-07-30 18:12:00,74.8,63.5,31.03,NNW,332,3.0,5.0,68,0.00,CLR,CLR,0.01,WeatherDisplay:10.37,2013-07-30 22:12:00,
2013-07-30 18:17:00,74.7,63.9,31.03,NNW,345,1.0,5.0,69,0.00,CLR,CLR,0.01,WeatherDisplay:10.37,2013-07-30 22:17:00,
2013-07-30 18:22:00,74.6,64.2,31.03,NNW,329,0.0,6.0,70,0.00,CLR,CLR,0.01,WeatherDisplay:10.37,2013-07-30 22:22:00,
2013-07-30 18:27:00,74.6,64.2,31.03,NW,323,0.0,3.0,70,0.00,CLR,CLR,0.01,WeatherDisplay:10.37,2013-07-30 22:27:00,
2013-07-30 18:32:00,74.6,64.1,31.03,WNW,302,1.0,3.0,70,0.00,CLR,CLR,0.01,WeatherDisplay:10.37,2013-07-30 22:32:00,
2013-07-30 18:37:00,74.4,64.0,31.02,WNW,299,0.0,4.0,70,0.00,CLR,CLR,0.01,WeatherDisplay:10.37,2013-07-30 22:37:00,
2013-07-30 18:42:00,74.2,63.4,31.02,NW,304,1.0,4.0,69,0.00,CLR,CLR,0.01,WeatherDisplay:10.37,2013-07-30 22:42:00,
2013-07-30 18:47:00,74.1,64.1,31.02,NW,311,1.0,6.0,71,0.00,CLR,CLR,0.01,WeatherDisplay:10.37,2013-07-30 22:47:00,
2013-07-30 18:52:00,73.8,63.8,31.02,North,357,1.0,6.0,71,0.00,CLR,CLR,0.01,WeatherDisplay:10.37,2013-07-30 22:52:00,
2013-07-30 18:57:00,73.6,63.2,31.02,North,2,1.0,5.0,70,0.00,CLR,CLR,0.01,WeatherDisplay:10.37,2013-07-30 22:57:00,
2013-07-30 19:02:00,73.5,63.9,31.02,North,356,0.0,5.0,72,0.00,CLR,CLR,0.01,WeatherDisplay:10.37,2013-07-30 23:02:00,
2013-07-30 19:07:00,73.4,63.8,31.02,NNW,334,0.0,5.0,72,0.00,CLR,CLR,0.01,WeatherDisplay:10.37,2013-07-30 23:07:00,
2013-07-30 19:17:00,72.8,62.8,31.02,North,357,0.0,3.0,71,0.00,CLR,CLR,0.01,WeatherDisplay:10.37,2013-07-30 23:17:00,
2013-07-30 19:32:00,72.2,63.1,31.02,North,360,0.0,3.0,73,0.00,CLR,CLR,0.01,WeatherDisplay:10.37,2013-07-30 23:32:00,
2013-07-30 19:37:00,72.0,63.3,31.02,North,360,0.0,3.0,74,0.00,CLR,CLR,0.01,WeatherDisplay:10.37,2013-07-30 23:37:00,
2013-07-30 19:47:00,71.5,62.8,31.02,North,360,0.0,2.0,74,0.00,CLR,CLR,0.01,WeatherDisplay:10.37,2013-07-30 23:47:00,
2013-07-30 19:52:00,71.3,63.3,31.02,North,360,0.0,0.0,76,0.00,CLR,CLR,0.01,WeatherDisplay:10.37,2013-07-30 23:52:00,
2013-07-30 19:57:00,71.1,63.2,31.02,North,360,0.0,0.0,76,0.00,CLR,CLR,0.01,WeatherDisplay:10.37,2013-07-30 23:57:00,
2013-07-30 20:02:00,70.8,62.9,31.02,North,360,0.0,1.0,76,0.00,CLR,CLR,0.01,WeatherDisplay:10.37,2013-07-31 00:02:00,
2013-07-30 20:07:00,70.5,63.3,31.02,North,360,0.0,0.0,78,0.00,CLR,CLR,0.01,WeatherDisplay:10.37,2013-07-31 00:07:00,
2013-07-30 20:17:00,69.9,63.1,31.02,North,360,0.0,1.0,79,0.00,CLR,CLR,0.01,WeatherDisplay:10.37,2013-07-31 00:17:00,
2013-07-30 20:22:00,69.6,63.2,31.02,North,360,0.0,0.0,80,0.00,CLR,CLR,0.01,WeatherDisplay:10.37,2013-07-31 00:22:00,
2013-07-30 20:27:00,69.2,62.8,31.02,North,360,0.0,0.0,80,0.00,CLR,CLR,0.01,WeatherDisplay:10.37,2013-07-31 00:27:00,
2013-07-30 20:32:00,68.9,62.8,31.02,North,360,0.0,1.0,81,0.00,CLR,CLR,0.01,WeatherDisplay:10.37,2013-07-31 00:32:00,
2013-07-30 20:42:00,68.2,62.8,31.02,North,360,0.0,0.0,83,0.00,CLR,CLR,0.01,WeatherDisplay:10.37,2013-07-31 00:42:00,
2013-07-30 20:47:00,67.7,62.7,31.02,North,360,0.0,0.0,84,0.00,CLR,CLR,0.01,WeatherDisplay:10.37,2013-07-31 00:47:00,
2013-07-30 20:52:00,67.3,62.7,31.02,North,360,0.0,0.0,85,0.00,CLR,CLR,0.01,WeatherDisplay:10.37,2013-07-31 00:52:00,
2013-07-30 20:57:00,66.9,62.3,31.02,North,360,0.0,0.0,85,0.00,CLR,CLR,0.01,WeatherDisplay:10.37,2013-07-31 00:57:00,
2013-07-30 21:02:00,66.4,62.1,31.02,North,360,0.0,0.0,86,0.00,CLR,CLR,0.01,WeatherDisplay:10.37,2013-07-31 01:02:00,
2013-07-30 21:07:00,66.1,62.1,31.02,North,360,0.0,0.0,87,0.00,CLR,CLR,0.01,WeatherDisplay:10.37,2013-07-31 01:07:00,
2013-07-30 21:17:00,65.5,61.8,31.02,North,360,0.0,0.0,88,0.00,CLR,CLR,0.01,WeatherDisplay:10.37,2013-07-31 01:17:00,
2013-07-30 21:22:00,65.2,61.9,31.02,North,360,0.0,0.0,89,0.00,CLR,CLR,0.01,WeatherDisplay:10.37,2013-07-31 01:22:00,
2013-07-30 21:27:00,64.9,61.6,31.02,North,360,0.0,0.0,89,0.00,CLR,CLR,0.01,WeatherDisplay:10.37,2013-07-31 01:27:00,
2013-07-30 21:32:00,64.6,61.6,31.02,North,360,0.0,0.0,90,0.00,CLR,CLR,0.01,WeatherDisplay:10.37,2013-07-31 01:32:00,
2013-07-30 21:37:00,64.2,61.5,31.03,North,360,0.0,0.0,91,0.00,CLR,CLR,0.01,WeatherDisplay:10.37,2013-07-31 01:37:00,
2013-07-30 21:42:00,64.0,61.3,31.03,North,360,0.0,0.0,91,0.00,CLR,CLR,0.01,WeatherDisplay:10.37,2013-07-31 01:42:00,
2013-07-30 21:47:00,63.8,61.5,31.03,North,360,0.0,0.0,92,0.00,CLR,CLR,0.01,WeatherDisplay:10.37,2013-07-31 01:47:00,
2013-07-30 21:57:00,63.4,61.0,31.03,North,360,0.0,0.0,92,0.00,CLR,CLR,0.01,WeatherDisplay:10.37,2013-07-31 01:57:00,
2013-07-30 22:02:00,63.2,60.8,31.03,North,360,0.0,0.0,92,0.00,CLR,CLR,0.01,WeatherDisplay:10.37,2013-07-31 02:02:00,
2013-07-30 22:07:00,63.0,60.9,31.03,North,360,0.0,0.0,93,0.00,CLR,CLR,0.01,WeatherDisplay:10.37,2013-07-31 02:07:00,
2013-07-30 22:12:00,62.9,60.8,31.03,North,360,0.0,0.0,93,0.00,CLR,CLR,0.01,WeatherDisplay:10.37,2013-07-31 02:12:00,
2013-07-30 22:17:00,62.7,60.6,31.03,North,360,0.0,0.0,93,0.00,CLR,CLR,0.01,WeatherDisplay:10.37,2013-07-31 02:17:00,
2013-07-30 22:22:00,62.5,60.4,31.03,North,360,0.0,0.0,93,0.00,CLR,CLR,0.01,WeatherDisplay:10.37,2013-07-31 02:22:00,
2013-07-30 22:27:00,62.4,60.7,31.03,North,360,0.0,0.0,94,0.00,CLR,CLR,0.01,WeatherDisplay:10.37,2013-07-31 02:27:00,
2013-07-30 22:32:00,62.2,60.5,31.03,North,360,0.0,0.0,94,0.00,CLR,CLR,0.01,WeatherDisplay:10.37,2013-07-31 02:32:00,
2013-07-30 22:37:00,62.0,60.3,31.02,North,360,0.0,0.0,94,0.00,CLR,CLR,0.01,WeatherDisplay:10.37,2013-07-31 02:37:00,
2013-07-30 22:42:00,61.9,60.2,31.02,North,360,0.0,0.0,94,0.00,CLR,CLR,0.01,WeatherDisplay:10.37,2013-07-31 02:42:00,
2013-07-30 22:47:00,60.6,58.9,31.03,North,4,0.0,0.0,94,0.00,CLR,CLR,0.01,WeatherDisplay:10.37,2013-07-31 02:47:00,
2013-07-30 22:57:00,60.3,58.6,31.02,North,1,0.0,0.0,94,0.00,CLR,CLR,0.01,WeatherDisplay:10.37,2013-07-31 02:57:00,
2013-07-30 23:07:00,60.2,58.8,31.02,North,2,0.0,0.0,95,0.00,CLR,CLR,0.01,WeatherDisplay:10.37,2013-07-31 03:07:00,
2013-07-30 23:12:00,60.2,58.8,31.02,North,1,0.0,0.0,95,0.00,CLR,CLR,0.01,WeatherDisplay:10.37,2013-07-31 03:12:00,
2013-07-30 23:17:00,60.2,58.8,31.02,North,1,0.0,0.0,95,0.00,CLR,CLR,0.01,WeatherDisplay:10.37,2013-07-31 03:17:00,
2013-07-30 23:22:00,60.9,59.5,31.02,North,1,0.0,0.0,95,0.00,CLR,CLR,0.01,WeatherDisplay:10.37,2013-07-31 03:22:00,
2013-07-30 23:27:00,60.8,59.4,31.02,North,360,0.0,0.0,95,0.00,CLR,CLR,0.01,WeatherDisplay:10.37,2013-07-31 03:27:00,
2013-07-30 23:37:00,60.5,59.1,31.02,North,360,0.0,0.0,95,0.00,CLR,CLR,0.01,WeatherDisplay:10.37,2013-07-31 03:37:00,
2013-07-30 23:42:00,60.4,58.9,31.02,North,360,0.0,0.0,95,0.00,CLR,CLR,0.01,WeatherDisplay:10.37,2013-07-31 03:42:00,
2013-07-30 23:47:00,60.2,58.8,31.02,North,360,0.0,0.0,95,0.00,CLR,CLR,0.01,WeatherDisplay:10.37,2013-07-31 03:47:00,
2013-07-30 23:52:00,60.1,58.7,31.02,North,360,0.0,0.0,95,0.00,CLR,CLR,0.01,WeatherDisplay:10.37,2013-07-31 03:52:00,
2013-07-30 23:57:00,60.0,58.9,31.02,North,360,0.0,0.0,96,0.00,CLR,CLR,0.01,WeatherDisplay:10.37,2013-07-31 03:57:00,